Location: R�serve Fauniques des Laurentides
(47.3100°N, 71.1900°W)
Time: 08:38:38
(UTC-04:00)

Amateur Radio Satellites - All Passes

Search period start: 20 August 2014 08:08
Search period end: 21 August 2014 08:08
Location: R�serve Fauniques des Laurentides, 47.3100°N, 71.1900°W

Satellite Date Start Highest point End Downlink Frequencies (MHz)
Time Altitude Azimuth
HO-68 20 Aug 08:18:48 08:22:43 15° 86° (E) 08:26:36 435.675 MHz FM
STRAND 1 20 Aug 08:27:33 08:28:40 11° 274° (W) 08:29:47 ?
RS-15 20 Aug 08:40:38 08:49:58 33° 106° (ESE) 08:59:10 29.354 - 29.394 USB, Beacon 29.352 USB
UKube-1 20 Aug 08:54:55 08:55:40 10° 87° (E) 08:56:26 145.840 MHz, 145.915 MHz
SO-67 20 Aug 09:02:24 09:04:55 19° 294° (WNW) 09:07:25 435.3500 MHz FM
UOSAT-12 20 Aug 09:04:23 09:09:02 89° 127° (SE) 09:13:47 437.025 FM, 437.400 FM
AO-7 20 Aug 09:08:32 09:09:33 10° 332° (NNW) 09:10:34 29.400 - 29.500 MHz
Oscar 11 20 Aug 09:13:20 09:14:12 11° 87° (E) 09:15:04 145.825 FM, Beacon 2401.500 USB
SO-50 20 Aug 09:23:13 09:26:00 16° 335° (NNW) 09:28:50 436.795 FM
Saudisat 1A 20 Aug 09:28:14 09:32:33 48° 46° (NE) 09:36:49 436.775 MHz
KITSAT 1 20 Aug 09:35:24 09:43:15 51° 44° (NE) 09:51:03 435.175 FM
HO-68 20 Aug 10:04:24 10:11:35 77° 106° (ESE) 10:18:44 435.675 MHz FM
UKube-1 20 Aug 10:28:08 10:32:31 87° 285° (WNW) 10:36:51 145.840 MHz, 145.915 MHz
FUNcube-1 20 Aug 10:40:19 10:44:19 34° 97° (E) 10:48:23 145.950 - 145.970 MHz USB
UOSAT-12 20 Aug 10:46:15 10:49:50 21° 328° (NNW) 10:53:27 437.025 FM, 437.400 FM
Oscar 11 20 Aug 10:46:37 10:51:01 87° 285° (WNW) 10:55:24 145.825 FM, Beacon 2401.500 USB
RS-15 20 Aug 10:50:13 11:01:18 79° 310° (NW) 11:12:18 29.354 - 29.394 USB, Beacon 29.352 USB
Saudisat 1A 20 Aug 11:08:17 11:11:54 25° 245° (WSW) 11:15:29 436.775 MHz
Oscar 16 20 Aug 11:28:37 11:30:02 11° 52° (NE) 11:31:27 437.025 USB, Beacon 2401.1428
KITSAT 1 20 Aug 11:31:02 11:38:43 50° 246° (WSW) 11:46:21 435.175 FM
HO-68 20 Aug 11:52:57 11:58:39 27° 306° (NW) 12:04:20 435.675 MHz FM
JAS-1B 20 Aug 12:00:40 12:07:31 22° 48° (NE) 12:13:59 435.800 - 435.900 CW/SSB
UKube-1 20 Aug 12:06:29 12:08:02 12° 304° (WNW) 12:09:34 145.840 MHz, 145.915 MHz
FUNcube-1 20 Aug 12:16:54 12:20:38 28° 294° (WNW) 12:24:26 145.950 - 145.970 MHz USB
Oscar 11 20 Aug 12:24:58 12:26:31 12° 303° (WNW) 12:28:03 145.825 FM, Beacon 2401.500 USB
Oscar 19 20 Aug 12:31:08 12:35:42 33° 65° (ENE) 12:40:19 437.125 CW, 437.150 USB
ITAMSAT 1 20 Aug 12:38:26 12:42:07 20° 59° (ENE) 12:45:49 435.822 SSB
AO-7 20 Aug 12:45:57 12:46:56 10° 28° (NNE) 12:47:56 29.400 - 29.500 MHz
SO-50 20 Aug 12:48:27 12:51:14 15° 25° (NNE) 12:54:02 436.795 FM
Uribyol 2 20 Aug 12:50:45 12:54:58 26° 62° (ENE) 12:59:11 436.500 FM
AO-Echo 20 Aug 12:51:10 12:55:21 26° 63° (ENE) 12:59:27 ?
AO-27 20 Aug 13:03:16 13:07:48 32° 64° (ENE) 13:12:21 436.795 MHz FM
Oscar 16 20 Aug 13:03:20 13:08:24 64° 71° (ENE) 13:13:31 437.025 USB, Beacon 2401.1428
RS-15 20 Aug 13:05:41 13:15:34 37° 339° (NNW) 13:25:31 29.354 - 29.394 USB, Beacon 29.352 USB
TMSAT-1 20 Aug 13:26:29 13:30:02 19° 58° (ENE) 13:33:36 436.925 FM
JAS-1B 20 Aug 13:46:45 13:56:34 69° 69° (ENE) 14:05:47 435.800 - 435.900 CW/SSB
ISS 20 Aug 13:56:29 13:57:18 11° 133° (SE) 13:58:06 145.800 FM
Gurwin Techsat 1B 20 Aug 14:05:13 14:10:17 48° 68° (ENE) 14:15:22 435.225 FM
Oscar 19 20 Aug 14:10:15 14:15:00 37° 263° (W) 14:19:48 437.125 CW, 437.150 USB
UOSAT-12 20 Aug 14:12:11 14:14:08 12° 17° (NNE) 14:16:05 437.025 FM, 437.400 FM
ITAMSAT 1 20 Aug 14:15:58 14:21:08 68° 257° (WSW) 14:26:19 435.822 SSB
SO-50 20 Aug 14:28:13 14:32:52 51° 46° (NE) 14:37:34 436.795 FM
AO-Echo 20 Aug 14:28:51 14:33:53 49° 261° (W) 14:38:47 ?
Uribyol 2 20 Aug 14:29:11 14:34:11 49° 260° (W) 14:39:12 436.500 FM
AO-7 20 Aug 14:30:02 14:37:10 33° 53° (NE) 14:44:18 29.400 - 29.500 MHz
AO-27 20 Aug 14:42:21 14:47:13 40° 262° (W) 14:52:06 436.795 MHz FM
Oscar 16 20 Aug 14:44:37 14:48:13 19° 270° (W) 14:51:51 437.025 USB, Beacon 2401.1428
TMSAT-1 20 Aug 15:04:05 15:09:22 77° 257° (WSW) 15:14:42 436.925 FM
Uosat F 20 Aug 15:09:44 15:14:05 31° 64° (ENE) 15:18:27 435.120 FM
MaSat-1 20 Aug 15:12:13 15:16:10 26° 105° (ESE) 15:20:23 437.345 MHz
RS-15 20 Aug 15:22:06 15:31:46 34° 14° (NNE) 15:41:36 29.354 - 29.394 USB, Beacon 29.352 USB
ISS 20 Aug 15:30:10 15:33:27 60° 150° (SSE) 15:36:44 145.800 FM
JAS-1B 20 Aug 15:38:34 15:47:27 37° 268° (W) 15:56:01 435.800 - 435.900 CW/SSB
Gurwin Techsat 1B 20 Aug 15:46:03 15:50:28 27° 267° (W) 15:54:56 435.225 FM
OPAL 20 Aug 15:49:19 15:51:13 12° 89° (E) 15:53:07 ?
UOSAT-12 20 Aug 15:51:23 15:55:43 34° 40° (NE) 16:00:00 437.025 FM, 437.400 FM
SO-50 20 Aug 16:09:14 16:13:12 27° 245° (WSW) 16:17:13 436.795 FM
AO-7 20 Aug 16:21:03 16:29:23 72° 254° (WSW) 16:37:45 29.400 - 29.500 MHz
JAS-2 20 Aug 16:22:33 16:27:12 21° 59° (ENE) 16:31:29 435.800 - 435.900 CW/SSB, 435.910 FM
Uosat F 20 Aug 16:48:04 16:52:46 39° 262° (W) 16:57:29 435.120 FM
MaSat-1 20 Aug 16:48:16 16:53:00 51° 306° (NW) 16:58:05 437.345 MHz
TMSAT-1 20 Aug 16:48:53 16:50:11 11° 275° (W) 16:51:30 436.925 FM
ISS 20 Aug 17:07:06 17:10:18 43° 349° (N) 17:13:31 145.800 FM
Hamsat 20 Aug 17:19:06 17:23:09 44° 70° (ENE) 17:27:17 145.90 MHz
OPAL 20 Aug 17:25:39 17:30:53 82° 106° (ESE) 17:36:06 ?
UOSAT-12 20 Aug 17:31:30 17:36:00 44° 240° (WSW) 17:40:26 437.025 FM, 437.400 FM
RS-15 20 Aug 17:35:39 17:46:38 66° 45° (NE) 17:57:57 29.354 - 29.394 USB, Beacon 29.352 USB
JAS-2 20 Aug 18:05:04 18:11:49 79° 256° (WSW) 18:17:46 435.800 - 435.900 CW/SSB, 435.910 FM
SO-67 20 Aug 18:05:37 18:08:07 19° 66° (ENE) 18:10:37 435.3500 MHz FM
AO-7 20 Aug 18:19:04 18:23:39 16° 275° (W) 18:28:16 29.400 - 29.500 MHz
Sapphire 20 Aug 18:19:45 18:22:42 15° 104° (ESE) 18:25:39 437.095 MHz 1200 baud AX-25 AFSK
MaSat-1 20 Aug 18:28:55 18:31:24 13° 327° (NNW) 18:33:56 437.345 MHz
ISS 20 Aug 18:44:16 18:47:28 41° 9° (N) 18:50:39 145.800 FM
PCSat 20 Aug 18:48:30 18:53:02 28° 110° (ESE) 18:57:36 145.825 MHz
STRAND 1 20 Aug 18:51:21 18:55:42 28° 94° (E) 19:00:02 ?
HO-68 20 Aug 18:51:27 18:56:15 20° 49° (NE) 19:01:04 435.675 MHz FM
Hamsat 20 Aug 18:56:11 18:59:21 20° 269° (W) 19:02:34 145.90 MHz
OPAL 20 Aug 19:05:44 19:09:09 18° 305° (NW) 19:12:34 ?
SO-67 20 Aug 19:37:51 19:40:59 31° 264° (W) 19:44:09 435.3500 MHz FM
RS-15 20 Aug 19:48:26 19:58:36 45° 249° (WSW) 20:09:10 29.354 - 29.394 USB, Beacon 29.352 USB
UKube-1 20 Aug 19:52:36 19:55:12 16° 59° (ENE) 19:57:50 145.840 MHz, 145.915 MHz
JAS-2 20 Aug 19:54:31 19:57:38 14° 273° (W) 20:00:37 435.800 - 435.900 CW/SSB, 435.910 FM
Sapphire 20 Aug 19:59:55 20:05:20 89° 122° (ESE) 20:10:48 437.095 MHz 1200 baud AX-25 AFSK
Oscar 11 20 Aug 20:11:00 20:13:15 14° 59° (ENE) 20:15:30 145.825 FM, Beacon 2401.500 USB
ISS 20 Aug 20:21:02 20:24:22 69° 208° (SSW) 20:27:41 145.800 FM
STRAND 1 20 Aug 20:30:15 20:35:03 43° 293° (WNW) 20:39:50 ?
PCSat 20 Aug 20:30:53 20:36:10 53° 309° (NW) 20:41:31 145.825 MHz
HO-68 20 Aug 20:35:47 20:42:55 78° 70° (ENE) 20:50:05 435.675 MHz FM
UKube-1 20 Aug 21:26:36 21:30:56 67° 257° (WSW) 21:35:17 145.840 MHz, 145.915 MHz
FUNcube-1 20 Aug 21:40:04 21:43:55 38° 69° (ENE) 21:47:49 145.950 - 145.970 MHz USB
Oscar 11 20 Aug 21:44:33 21:48:52 76° 258° (WSW) 21:53:14 145.825 FM, Beacon 2401.500 USB
Sapphire 20 Aug 21:45:20 21:49:31 22° 324° (NW) 21:53:43 437.095 MHz 1200 baud AX-25 AFSK
ISS 20 Aug 21:59:02 22:00:35 13° 226° (SW) 22:02:08 145.800 FM
PCSat 20 Aug 22:17:38 22:20:52 16° 332° (NNW) 22:24:06 145.825 MHz
HO-68 20 Aug 22:25:58 22:31:22 23° 270° (W) 22:36:49 435.675 MHz FM
FUNcube-1 20 Aug 23:17:18 23:20:30 21° 267° (W) 23:23:44 145.950 - 145.970 MHz USB
MaSat-1 20 Aug 23:26:36 23:30:17 20° 40° (NE) 23:33:45 437.345 MHz
Oscar 10/S400 20 Aug 23:30:05 00:02:15 54° 183° (S) 08:06:57 145.825 - 145.975 CW/USB, Beacon 145.810 USB
KITSAT 1 21 Aug 00:10:30 00:15:32 18° 101° (E) 00:20:33 435.175 FM
MaSat-1 21 Aug 01:03:08 01:08:10 84° 242° (WSW) 01:12:36 437.345 MHz
Oscar 16 21 Aug 01:12:51 01:16:20 18° 90° (E) 01:19:48 437.025 USB, Beacon 2401.1428
Saudisat 1A 21 Aug 01:16:58 01:21:03 39° 119° (ESE) 01:25:10 436.775 MHz
Sapphire 21 Aug 01:19:43 01:21:19 11° 17° (NNE) 01:22:55 437.095 MHz 1200 baud AX-25 AFSK
JAS-1B 21 Aug 01:33:18 01:36:56 14° 79° (ENE) 01:40:18 435.800 - 435.900 CW/SSB
PCSat 21 Aug 01:49:50 01:52:50 15° 26° (NNE) 01:55:50 145.825 MHz
KITSAT 1 21 Aug 02:01:34 02:09:38 78° 121° (ESE) 02:17:45 435.175 FM
Oscar 19 21 Aug 02:18:02 02:23:13 62° 102° (ESE) 02:28:21 437.125 CW, 437.150 USB
Gurwin Techsat 1B 21 Aug 02:19:34 02:22:28 15° 87° (E) 02:25:20 435.225 FM
ITAMSAT 1 21 Aug 02:25:51 02:30:32 34° 96° (E) 02:35:12 435.822 SSB
AO-Echo 21 Aug 02:32:59 02:37:30 41° 98° (E) 02:41:55 ?
Uribyol 2 21 Aug 02:38:30 02:43:29 46° 99° (E) 02:48:27 436.500 FM
MaSat-1 21 Aug 02:42:52 02:44:16 11° 263° (W) 02:45:38 437.345 MHz
Oscar 16 21 Aug 02:51:01 02:56:12 69° 288° (WNW) 03:01:21 437.025 USB, Beacon 2401.1428
AO-27 21 Aug 02:51:42 02:56:49 57° 101° (E) 03:01:54 436.795 MHz FM
Saudisat 1A 21 Aug 02:56:40 03:00:42 33° 319° (NW) 03:04:45 436.775 MHz
Sapphire 21 Aug 03:01:50 03:06:37 30° 42° (NE) 03:11:22 437.095 MHz 1200 baud AX-25 AFSK
OPAL 21 Aug 03:05:58 03:10:21 31° 61° (ENE) 03:14:48 ?
TMSAT-1 21 Aug 03:16:57 03:21:45 34° 96° (E) 03:26:31 436.925 FM
JAS-1B 21 Aug 03:21:27 03:29:20 76° 103° (ESE) 03:35:50 435.800 - 435.900 CW/SSB
PCSat 21 Aug 03:32:22 03:37:38 48° 49° (NE) 03:42:52 145.825 MHz
Gurwin Techsat 1B 21 Aug 03:57:47 04:03:07 84° 286° (WNW) 04:08:26 435.225 FM
Oscar 19 21 Aug 03:58:14 04:02:07 22° 300° (WNW) 04:06:00 437.125 CW, 437.150 USB
KITSAT 1 21 Aug 03:58:28 04:05:49 36° 325° (NW) 04:13:11 435.175 FM
ITAMSAT 1 21 Aug 04:05:21 04:10:03 36° 294° (WNW) 04:14:45 435.822 SSB
AO-Echo 21 Aug 04:12:10 04:16:06 26° 297° (WNW) 04:19:59 ?
Uribyol 2 21 Aug 04:18:25 04:22:45 28° 297° (WNW) 04:27:05 436.500 FM
AO-7 21 Aug 04:19:23 04:26:42 33° 95° (E) 04:33:57 29.400 - 29.500 MHz
AO-27 21 Aug 04:31:58 04:35:58 23° 300° (WNW) 04:39:57 436.795 MHz FM
Oscar 16 21 Aug 04:32:41 04:34:38 12° 307° (NW) 04:36:34 437.025 USB, Beacon 2401.1428
Saudisat 1A 21 Aug 04:40:15 04:41:37 11° 341° (NNW) 04:42:59 436.775 MHz
OPAL 21 Aug 04:44:27 04:49:08 40° 260° (W) 04:53:54 ?
Sapphire 21 Aug 04:45:03 04:50:23 58° 242° (WSW) 04:55:41 437.095 MHz 1200 baud AX-25 AFSK
Uosat F 21 Aug 04:52:09 04:57:01 49° 100° (E) 05:01:51 435.120 FM
TMSAT-1 21 Aug 04:56:51 05:01:42 38° 294° (WNW) 05:06:32 436.925 FM
JAS-1B 21 Aug 05:12:45 05:19:02 27° 308° (NW) 05:24:31 435.800 - 435.900 CW/SSB
PCSat 21 Aug 05:16:07 05:20:53 32° 249° (WSW) 05:25:37 145.825 MHz
Gurwin Techsat 1B 21 Aug 05:39:25 05:42:19 15° 305° (NW) 05:45:12 435.225 FM
KITSAT 1 21 Aug 05:58:11 06:03:56 21° 354° (N) 06:09:42 435.175 FM
STRAND 1 21 Aug 06:10:13 06:15:12 55° 70° (ENE) 06:20:11 ?
AO-7 21 Aug 06:11:49 06:20:00 65° 296° (WNW) 06:28:08 29.400 - 29.500 MHz
SO-50 21 Aug 06:26:27 06:30:45 48° 121° (ESE) 06:35:11 436.795 FM
Uosat F 21 Aug 06:31:31 06:35:32 25° 298° (WNW) 06:39:32 435.120 FM
Hamsat 21 Aug 06:37:18 06:41:39 60° 100° (E) 06:45:57 145.90 MHz
JAS-2 21 Aug 06:55:57 07:01:09 68° 102° (ESE) 07:06:22 435.800 - 435.900 CW/SSB, 435.910 FM
SO-67 21 Aug 06:59:21 07:01:17 14° 91° (E) 07:03:13 435.3500 MHz FM
UOSAT-12 21 Aug 07:45:53 07:49:45 27° 115° (ESE) 07:53:42 437.025 FM, 437.400 FM
STRAND 1 21 Aug 07:50:51 07:54:44 22° 268° (W) 07:58:38 ?
Saudisat 1A 21 Aug 08:01:38 08:04:43 18° 31° (NNE) 08:07:47 436.775 MHz
HO-68 21 Aug 08:03:44 08:05:27 11° 83° (E) 08:07:10 435.675 MHz FM
